{"data":{"norad_id":61060,"epoch":"2026-05-24T19:42:17.700480Z","epoch_age_seconds":90809,"freshness":"FRESH","line1":"1 61060U 24164L   26144.82103820  .00001771  00000+0  19474-4 0  9995","line2":"2 61060  53.1565 296.1510 0001123 109.1862 250.9277 15.69711717 97371","mean_motion":15.69711717,"eccentricity":0.0001123,"inclination_deg":53.1565,"raan_deg":296.151,"arg_perigee_deg":109.1862,"mean_anomaly_deg":250.9277,"bstar":1.9474e-5,"rev_number":9737,"period_min":91.73658987219,"perigee_km":358.96517548009,"apogee_km":360.47849857489,"semimajor_km":6737.8588370275,"source":"CELESTRAK","updated_at":"2026-05-25T13:38:19.355433Z"}}